Simultaneous Nadir Overpasses (SNOs) Predictions

Prediction of SNOs between LANDSAT-8 and METOP-A Satellite Orbit:

Table of predicted SNOs for the next 14.0 days since TLE Epoch: 11/11/2017
Index Date (LANDSAT-8) Time (LANDSAT-8) Lat,Lon (LANDSAT-8) SZA (LANDSAT-8 ) Date (METOP-A) Time (METOP-A) Lat,Lon (METOP-A) SZA (METOP-A ) Distance(km) Time Diff (sec)
1 11/11/2017 04:44:42 81.28, 151.22 101.32 11/11/2017 04:45:08 81.28, 151.38 101.35 2.69 26
2 11/13/2017 23:29:31 -81.26, 49.70 78.00 11/13/2017 23:28:48 -81.26, 49.66 78.03 0.68 43
3 11/14/2017 00:18:57 81.26,-142.56 102.03 11/14/2017 00:19:28 81.27,-142.72 102.02 2.76 31
4 11/16/2017 19:03:44 -81.27, 116.27 77.29 11/16/2017 19:03:05 -81.27, 116.35 77.30 1.33 39
5 11/16/2017 19:53:10 81.27, -76.01 102.74 11/16/2017 19:53:45 81.27, -76.07 102.75 0.99 35
6 11/19/2017 14:37:58 -81.27,-177.20 76.63 11/19/2017 14:37:24 -81.26,-177.35 76.67 2.81 34
7 11/19/2017 15:27:24 81.27, -9.51 103.39 11/19/2017 15:28:03 81.28, -9.44 103.42 1.37 39
8 11/22/2017 10:12:12 -81.27,-110.72 76.02 11/22/2017 10:11:42 -81.27,-110.70 76.04 0.61 30




NCC Satellite Simultaneous Nadir Overpasses (SNOs) Prediction Service
